Volver al catálogo

SL-8 DEB

ActivoLEO
NORAD 21163·DEBRIS·🇷🇺 Russia

Lanzado Feb 12, 1991 desde Plesetsk Cosmodrome

Loading…

Próximos Pases (próximas 24 horas)

TLE

ActualizadoSource: Space-Track

Época: Sep 14, 2026, 14:44 UTC

1 21163U 91009AA  26257.61456319  .00000028  00000-0  35558-3 0  9998
2 21163  73.9458  10.9983 0138336 259.1229 113.3999 12.30978378595827

Sigue SL-8 DEB en tiempo real con AllMySat

Download on the App Store